TimePDT,TemperatureF,Dew PointF,Humidity,Sea Level PressureIn,VisibilityMPH,Wind Direction,Wind SpeedMPH,Gust SpeedMPH,PrecipitationIn,Events,Conditions,WindDirDegrees,DateUTC
12:53 AM,48.0,39.0,71,29.99,8.0,SE,3.5,-,N/A,,Clear,130,2013-03-25 07:53:00
1:53 AM,46.9,39.0,74,29.99,8.0,Calm,Calm,-,N/A,,Clear,0,2013-03-25 08:53:00
2:53 AM,46.0,39.0,76,29.98,8.0,Calm,Calm,-,N/A,,Clear,0,2013-03-25 09:53:00
3:53 AM,42.1,37.0,82,29.97,7.0,Calm,Calm,-,N/A,,Clear,0,2013-03-25 10:53:00
4:53 AM,44.1,36.0,73,29.97,6.0,Calm,Calm,-,N/A,,Haze,0,2013-03-25 11:53:00
5:53 AM,43.0,39.0,86,29.98,6.0,Calm,Calm,-,N/A,,Clear,0,2013-03-25 12:53:00
6:53 AM,43.0,37.0,80,29.98,6.0,Calm,Calm,-,N/A,,Haze,0,2013-03-25 13:53:00
7:53 AM,46.0,39.9,79,30.00,5.0,Calm,Calm,-,N/A,,Haze,0,2013-03-25 14:53:00
8:53 AM,53.1,42.1,66,30.01,7.0,ENE,3.5,-,N/A,,Clear,70,2013-03-25 15:53:00
9:53 AM,59.0,44.1,58,30.01,7.0,SE,3.5,-,N/A,,Clear,130,2013-03-25 16:53:00
10:53 AM,63.0,46.0,54,30.01,7.0,Variable,4.6,-,N/A,,Clear,0,2013-03-25 17:53:00
11:53 AM,68.0,43.0,40,30.01,9.0,Calm,Calm,-,N/A,,Clear,0,2013-03-25 18:53:00
12:53 PM,72.0,42.1,34,29.99,10.0,Variable,4.6,-,N/A,,Clear,0,2013-03-25 19:53:00
1:53 PM,73.9,39.9,29,29.96,10.0,NW,4.6,-,N/A,,Clear,320,2013-03-25 20:53:00
2:53 PM,75.0,39.9,28,29.94,10.0,North,3.5,-,N/A,,Clear,350,2013-03-25 21:53:00
3:53 PM,77.0,41.0,28,29.92,10.0,NNW,5.8,-,N/A,,Clear,340,2013-03-25 22:53:00
4:53 PM,75.0,41.0,29,29.90,10.0,ENE,4.6,-,N/A,,Clear,70,2013-03-25 23:53:00
5:53 PM,75.0,44.1,33,29.89,10.0,NE,4.6,-,N/A,,Clear,50,2013-03-26 00:53:00
6:53 PM,70.0,45.0,41,29.90,10.0,East,3.5,-,N/A,,Clear,80,2013-03-26 01:53:00
7:53 PM,62.1,44.1,52,29.90,8.0,Calm,Calm,-,N/A,,Clear,0,2013-03-26 02:53:00
8:53 PM,63.0,45.0,52,29.91,9.0,Calm,Calm,-,N/A,,Clear,0,2013-03-26 03:53:00
9:53 PM,62.1,44.1,52,29.92,9.0,NW,3.5,-,N/A,,Clear,310,2013-03-26 04:53:00
10:53 PM,57.9,45.0,62,29.93,9.0,Calm,Calm,-,N/A,,Clear,0,2013-03-26 05:53:00
11:53 PM,52.0,45.0,77,29.94,8.0,Calm,Calm,-,N/A,,Clear,0,2013-03-26 06:53:00